FDX3MD NVVV-AGGH

Flight info

Callsign FDX3MD
Flight time 4h 11m
Altitude 6000
Route VOR VLI B598 IGBED DCT VAKRO VAKRO1A
Aircraft C208/L-SDFGR/C

Departure

Time 2026-04-29 05:48
Airport Bauerfield International Airport (NVVV)

Arrival

Time 2026-04-29 10:00
Airport Honiara International Airport (AGGH)
Time Latitude Longitude Altitude Speed Heading
2026-04-29 05:28 -17.70028 168.31880 80 ft 0 kts 121°
2026-04-29 05:43 -17.70030 168.31886 80 ft 2 kts 98°
2026-04-29 05:43 -17.70010 168.31929 79 ft 8 kts 54°
2026-04-29 05:44 -17.69943 168.31958 79 ft 12 kts 340°
2026-04-29 05:44 -17.69891 168.31868 79 ft 16 kts 293°
2026-04-29 05:44 -17.69817 168.31741 78 ft 20 kts 306°
2026-04-29 05:44 -17.69744 168.31604 77 ft 22 kts 297°
2026-04-29 05:45 -17.69674 168.31448 76 ft 24 kts 300°
2026-04-29 05:45 -17.69584 168.31287 75 ft 25 kts 295°
2026-04-29 05:45 -17.69497 168.31111 74 ft 26 kts 303°
2026-04-29 05:45 -17.69407 168.30939 71 ft 28 kts 295°
2026-04-29 05:46 -17.69294 168.30794 65 ft 15 kts 324°
2026-04-29 05:46 -17.69244 168.30727 64 ft 8 kts 300°
2026-04-29 05:46 -17.69275 168.30687 64 ft 9 kts 146°
2026-04-29 05:46 -17.69285 168.30701 64 ft 0 kts 115°
2026-04-29 05:47 -17.69317 168.30771 66 ft 37 kts 115°
2026-04-29 05:47 -17.69533 168.31187 75 ft 87 kts 119°
2026-04-29 05:47 -17.69884 168.31854 349 ft 90 kts 121°
2026-04-29 05:48 -17.70246 168.32468 455 ft 110 kts 117°
2026-04-29 05:48 -17.70689 168.33225 597 ft 121 kts 118°
2026-04-29 05:48 -17.71174 168.34036 771 ft 126 kts 118°
2026-04-29 05:48 -17.71654 168.34868 951 ft 129 kts 115°
2026-04-29 05:49 -17.71804 168.35791 1124 ft 130 kts 82°
2026-04-29 05:49 -17.71430 168.36734 1293 ft 135 kts 56°
2026-04-29 05:49 -17.70614 168.37360 1450 ft 140 kts 27°
2026-04-29 05:49 -17.69639 168.37593 1625 ft 146 kts 10°
2026-04-29 05:50 -17.68639 168.37323 1800 ft 157 kts 324°
2026-04-29 05:50 -17.68000 168.36317 2056 ft 158 kts 292°
2026-04-29 05:50 -17.67701 168.35213 2284 ft 157 kts 282°
2026-04-29 05:50 -17.67506 168.34084 2509 ft 156 kts 278°
2026-04-29 05:51 -17.67342 168.32941 2738 ft 155 kts 278°
2026-04-29 05:51 -17.67186 168.31802 2943 ft 157 kts 278°
2026-04-29 05:51 -17.67029 168.30597 2900 ft 173 kts 278°
2026-04-29 05:51 -17.66857 168.29303 3128 ft 167 kts 278°
2026-04-29 05:52 -17.66689 168.28021 3373 ft 163 kts 278°
2026-04-29 05:52 -17.66534 168.26848 3602 ft 160 kts 279°
2026-04-29 05:52 -17.66379 168.25664 3839 ft 158 kts 279°
2026-04-29 05:52 -17.66123 168.24510 4075 ft 153 kts 306°
2026-04-29 05:53 -17.65453 168.23624 4321 ft 149 kts 318°
2026-04-29 05:53 -17.64718 168.22823 4560 ft 148 kts 320°
2026-04-29 05:53 -17.63988 168.22054 4793 ft 147 kts 320°
2026-04-29 05:53 -17.63319 168.21352 5007 ft 147 kts 321°
2026-04-29 05:54 -17.62620 168.20616 5232 ft 147 kts 321°
2026-04-29 05:54 -17.61857 168.19812 5478 ft 147 kts 321°
2026-04-29 05:54 -17.61186 168.19107 5695 ft 147 kts 321°
2026-04-29 05:54 -17.60466 168.18350 5925 ft 147 kts 321°
2026-04-29 05:55 -17.59706 168.17554 5996 ft 159 kts 320°
2026-04-29 05:55 -17.58889 168.16696 5993 ft 169 kts 320°
2026-04-29 05:55 -17.58036 168.15801 5988 ft 176 kts 320°
2026-04-29 05:55 -17.57139 168.14854 5984 ft 179 kts 320°
2026-04-29 05:56 -17.56202 168.13870 5986 ft 180 kts 320°
2026-04-29 05:56 -17.55320 168.12944 5981 ft 181 kts 320°
2026-04-29 05:56 -17.54426 168.12003 5982 ft 180 kts 320°
2026-04-29 05:56 -17.53535 168.11067 5983 ft 180 kts 320°
2026-04-29 05:57 -17.52646 168.10133 5984 ft 179 kts 320°
2026-04-29 05:57 -17.51766 168.09206 5985 ft 179 kts 320°
2026-04-29 05:57 -17.50856 168.08249 5986 ft 180 kts 320°
2026-04-29 05:57 -17.49968 168.07318 5984 ft 180 kts 320°
2026-04-29 05:58 -17.49064 168.06367 5986 ft 180 kts 320°
2026-04-29 05:58 -17.48180 168.05438 5985 ft 180 kts 320°
2026-04-29 05:58 -17.47336 168.04553 5985 ft 180 kts 320°
2026-04-29 05:58 -17.46454 168.03628 5986 ft 179 kts 320°
2026-04-29 05:59 -17.45566 168.02693 5986 ft 179 kts 320°
2026-04-29 05:59 -17.44672 168.01758 5985 ft 179 kts 320°
2026-04-29 05:59 -17.43769 168.00812 5982 ft 179 kts 320°
2026-04-29 05:59 -17.42875 167.99875 5982 ft 179 kts 320°
2026-04-29 06:00 -17.41977 167.98932 5982 ft 179 kts 319°
2026-04-29 06:00 -17.41095 167.98006 5983 ft 179 kts 319°
2026-04-29 06:00 -17.40210 167.97078 5985 ft 179 kts 320°
2026-04-29 06:00 -17.39326 167.96149 5985 ft 180 kts 320°
2026-04-29 06:01 -17.38441 167.95222 5985 ft 180 kts 320°
2026-04-29 06:01 -17.37554 167.94293 5988 ft 180 kts 320°
2026-04-29 06:01 -17.36671 167.93370 5992 ft 179 kts 320°
2026-04-29 06:01 -17.35778 167.92436 5999 ft 179 kts 320°
2026-04-29 06:02 -17.34904 167.91524 6002 ft 179 kts 320°
2026-04-29 06:02 -17.34014 167.90591 6003 ft 179 kts 320°
2026-04-29 06:02 -17.33129 167.89671 6003 ft 179 kts 320°
2026-04-29 06:02 -17.32250 167.88751 6003 ft 179 kts 319°
2026-04-29 06:03 -17.31374 167.87833 6002 ft 179 kts 319°
2026-04-29 06:03 -17.30487 167.86903 6002 ft 179 kts 319°
2026-04-29 06:03 -17.29603 167.85976 6000 ft 179 kts 319°
2026-04-29 06:03 -17.28720 167.85051 6000 ft 179 kts 319°
2026-04-29 06:04 -17.27833 167.84125 6001 ft 179 kts 319°
2026-04-29 06:04 -17.26953 167.83203 6000 ft 179 kts 319°
2026-04-29 06:04 -17.26071 167.82281 6001 ft 179 kts 319°
2026-04-29 06:04 -17.25186 167.81355 6001 ft 179 kts 319°
2026-04-29 06:05 -17.24300 167.80428 6000 ft 179 kts 319°
2026-04-29 06:05 -17.23427 167.79517 5999 ft 179 kts 319°
2026-04-29 06:05 -17.22536 167.78583 5998 ft 179 kts 319°
2026-04-29 06:05 -17.21648 167.77655 5997 ft 179 kts 319°
2026-04-29 06:06 -17.20822 167.76791 5996 ft 178 kts 320°
2026-04-29 06:06 -17.19938 167.75865 5997 ft 178 kts 319°
2026-04-29 06:06 -17.19056 167.74947 5997 ft 178 kts 319°
2026-04-29 06:06 -17.18174 167.74023 5998 ft 178 kts 319°
2026-04-29 06:07 -17.17268 167.73079 5998 ft 178 kts 319°
2026-04-29 06:07 -17.16380 167.72148 5994 ft 179 kts 319°
2026-04-29 06:07 -17.15486 167.71214 5990 ft 179 kts 319°
2026-04-29 06:07 -17.14608 167.70297 5983 ft 179 kts 319°
2026-04-29 06:08 -17.13707 167.69357 5978 ft 180 kts 320°
2026-04-29 06:08 -17.12814 167.68425 5975 ft 179 kts 319°
2026-04-29 06:08 -17.11926 167.67499 5976 ft 179 kts 319°
2026-04-29 06:08 -17.11035 167.66571 5976 ft 179 kts 319°
2026-04-29 06:09 -17.10145 167.65642 5975 ft 179 kts 319°
2026-04-29 06:09 -17.09258 167.64712 5974 ft 178 kts 319°
2026-04-29 06:09 -17.08382 167.63800 5975 ft 178 kts 320°
2026-04-29 06:09 -17.07477 167.62854 5976 ft 178 kts 320°
2026-04-29 06:10 -17.06581 167.61919 5976 ft 178 kts 320°
2026-04-29 06:10 -17.05690 167.60992 5976 ft 178 kts 320°
2026-04-29 06:10 -17.04799 167.60065 5974 ft 178 kts 320°
2026-04-29 06:10 -17.03917 167.59146 5972 ft 179 kts 319°
2026-04-29 06:11 -17.02988 167.58177 5972 ft 179 kts 319°
2026-04-29 06:11 -17.02087 167.57240 5972 ft 179 kts 319°
2026-04-29 06:11 -17.01201 167.56316 5973 ft 178 kts 319°
2026-04-29 06:11 -17.00324 167.55402 5974 ft 178 kts 319°
2026-04-29 06:12 -16.99437 167.54477 5974 ft 178 kts 319°
2026-04-29 06:12 -16.98559 167.53563 5976 ft 178 kts 320°
2026-04-29 06:12 -16.97680 167.52644 5979 ft 178 kts 320°
2026-04-29 06:12 -16.96751 167.51674 5981 ft 178 kts 320°
2026-04-29 06:13 -16.95845 167.50732 5983 ft 177 kts 320°
2026-04-29 06:13 -16.94663 167.49506 5985 ft 178 kts 320°
2026-04-29 06:13 -16.94055 167.48871 5984 ft 178 kts 320°
2026-04-29 06:13 -16.93175 167.47957 5982 ft 178 kts 319°
2026-04-29 06:14 -16.92256 167.47003 5982 ft 179 kts 319°
2026-04-29 06:14 -16.91327 167.46036 5980 ft 179 kts 319°
2026-04-29 06:14 -16.90503 167.45177 5980 ft 178 kts 319°
2026-04-29 06:14 -16.89614 167.44252 5980 ft 178 kts 319°
2026-04-29 06:15 -16.88702 167.43303 5981 ft 178 kts 319°
2026-04-29 06:15 -16.87822 167.42389 5982 ft 178 kts 319°
2026-04-29 06:15 -16.86934 167.41464 5982 ft 178 kts 319°
2026-04-29 06:15 -16.86017 167.40511 5982 ft 178 kts 320°
2026-04-29 06:16 -16.85101 167.39555 5985 ft 178 kts 320°
2026-04-29 06:16 -16.84211 167.38632 5983 ft 179 kts 320°
2026-04-29 06:16 -16.83302 167.37692 5982 ft 179 kts 320°
2026-04-29 06:16 -16.82416 167.36768 5981 ft 179 kts 320°
2026-04-29 06:17 -16.81501 167.35820 5981 ft 179 kts 320°
2026-04-29 06:17 -16.80587 167.34869 5980 ft 179 kts 320°
2026-04-29 06:17 -16.79701 167.33952 5976 ft 179 kts 320°
2026-04-29 06:17 -16.78819 167.33035 5975 ft 178 kts 320°
2026-04-29 06:18 -16.77865 167.32045 5974 ft 178 kts 319°
2026-04-29 06:18 -16.76980 167.31125 5975 ft 178 kts 320°
2026-04-29 06:18 -16.76102 167.30211 5976 ft 178 kts 320°
2026-04-29 06:18 -16.75179 167.29253 5975 ft 178 kts 320°
2026-04-29 06:19 -16.74298 167.28340 5977 ft 178 kts 320°
2026-04-29 06:19 -16.73421 167.27429 5976 ft 178 kts 320°
2026-04-29 06:19 -16.72454 167.26430 5976 ft 178 kts 320°
2026-04-29 06:19 -16.71551 167.25490 5977 ft 178 kts 320°
2026-04-29 06:20 -16.70664 167.24574 5976 ft 178 kts 319°
2026-04-29 06:20 -16.69697 167.23569 5977 ft 178 kts 320°
2026-04-29 06:20 -16.68869 167.22713 5976 ft 178 kts 319°
2026-04-29 06:20 -16.67966 167.21776 5977 ft 178 kts 320°
2026-04-29 06:21 -16.67092 167.20869 5980 ft 177 kts 320°
2026-04-29 06:21 -16.66207 167.19949 5983 ft 178 kts 320°
2026-04-29 06:21 -16.65327 167.19037 5986 ft 177 kts 320°
2026-04-29 06:21 -16.64427 167.18108 5985 ft 178 kts 320°
2026-04-29 06:22 -16.63546 167.17194 5985 ft 178 kts 320°
2026-04-29 06:22 -16.62649 167.16266 5985 ft 178 kts 320°
2026-04-29 06:22 -16.61747 167.15329 5984 ft 178 kts 320°
2026-04-29 06:22 -16.60842 167.14392 5986 ft 178 kts 320°
2026-04-29 06:23 -16.59951 167.13472 5986 ft 178 kts 320°
2026-04-29 06:23 -16.59066 167.12555 5986 ft 178 kts 320°
2026-04-29 06:23 -16.58247 167.11706 5985 ft 178 kts 320°
2026-04-29 06:23 -16.57340 167.10768 5984 ft 178 kts 319°
2026-04-29 06:24 -16.56442 167.09836 5984 ft 178 kts 320°
2026-04-29 06:24 -16.55558 167.08920 5985 ft 178 kts 320°
2026-04-29 06:24 -16.54668 167.08002 5984 ft 178 kts 320°
2026-04-29 06:24 -16.53782 167.07082 5981 ft 178 kts 319°
2026-04-29 06:25 -16.52906 167.06174 5983 ft 178 kts 320°
2026-04-29 06:25 -16.52024 167.05260 5985 ft 178 kts 320°
2026-04-29 06:25 -16.51131 167.04335 5986 ft 178 kts 320°
2026-04-29 06:25 -16.50245 167.03418 5986 ft 177 kts 319°
2026-04-29 06:26 -16.49367 167.02508 5985 ft 178 kts 320°
2026-04-29 06:26 -16.48490 167.01601 5985 ft 178 kts 320°
2026-04-29 06:26 -16.47602 167.00682 5985 ft 178 kts 320°
2026-04-29 06:26 -16.46692 166.99741 5983 ft 178 kts 320°
2026-04-29 06:27 -16.45811 166.98828 5982 ft 178 kts 320°
2026-04-29 06:27 -16.44922 166.97910 5978 ft 179 kts 320°
2026-04-29 06:27 -16.44045 166.97002 5974 ft 179 kts 320°
2026-04-29 06:27 -16.43146 166.96071 5972 ft 179 kts 320°
2026-04-29 06:28 -16.42261 166.95154 5970 ft 179 kts 320°
2026-04-29 06:28 -16.41371 166.94234 5969 ft 179 kts 320°
2026-04-29 06:28 -16.40477 166.93308 5970 ft 178 kts 320°
2026-04-29 06:28 -16.39553 166.92354 5971 ft 178 kts 319°
2026-04-29 06:29 -16.38668 166.91438 5972 ft 178 kts 320°
2026-04-29 06:29 -16.37766 166.90506 5971 ft 178 kts 320°
2026-04-29 06:29 -16.36826 166.89535 5970 ft 178 kts 319°
2026-04-29 06:29 -16.35924 166.88603 5967 ft 178 kts 320°
2026-04-29 06:30 -16.35013 166.87657 5967 ft 178 kts 320°
2026-04-29 06:30 -16.33194 166.85780 5966 ft 178 kts 320°
2026-04-29 06:30 -16.32265 166.84822 5967 ft 179 kts 320°
2026-04-29 06:31 -16.31371 166.83900 5968 ft 178 kts 319°
2026-04-29 06:31 -16.30488 166.82988 5969 ft 178 kts 319°
2026-04-29 06:31 -16.29592 166.82062 5967 ft 178 kts 319°
2026-04-29 06:31 -16.28699 166.81139 5964 ft 178 kts 319°
2026-04-29 06:32 -16.27827 166.80237 5962 ft 178 kts 319°
2026-04-29 06:32 -16.26927 166.79309 5960 ft 178 kts 320°
2026-04-29 06:32 -16.26033 166.78386 5960 ft 178 kts 319°
2026-04-29 06:32 -16.25122 166.77447 5959 ft 178 kts 319°
2026-04-29 06:33 -16.24149 166.76443 5958 ft 178 kts 319°
2026-04-29 06:33 -16.23254 166.75522 5961 ft 179 kts 320°
2026-04-29 06:33 -16.22369 166.74608 5964 ft 179 kts 319°
2026-04-29 06:33 -16.21459 166.73671 5962 ft 179 kts 319°
2026-04-29 06:34 -16.20572 166.72757 5960 ft 179 kts 319°
2026-04-29 06:34 -16.19678 166.71837 5958 ft 179 kts 320°
2026-04-29 06:34 -16.18783 166.70917 5956 ft 179 kts 320°
2026-04-29 06:34 -16.17890 166.69998 5955 ft 179 kts 320°
2026-04-29 06:35 -16.16999 166.69083 5956 ft 178 kts 320°
2026-04-29 06:35 -16.16075 166.68133 5956 ft 178 kts 319°
2026-04-29 06:35 -16.15182 166.67219 5956 ft 178 kts 320°
2026-04-29 06:35 -16.14288 166.66301 5957 ft 178 kts 319°
2026-04-29 06:36 -16.13400 166.65392 5957 ft 178 kts 320°
2026-04-29 06:36 -16.12521 166.64490 5957 ft 179 kts 320°
2026-04-29 06:36 -16.11620 166.63567 5956 ft 179 kts 320°
2026-04-29 06:36 -16.10729 166.62653 5957 ft 179 kts 320°
2026-04-29 06:37 -16.09825 166.61726 5956 ft 179 kts 320°
2026-04-29 06:37 -16.08931 166.60809 5956 ft 179 kts 319°
2026-04-29 06:37 -16.08045 166.59901 5956 ft 179 kts 320°
2026-04-29 06:37 -16.07142 166.58975 5958 ft 179 kts 320°
2026-04-29 06:38 -16.06253 166.58063 5961 ft 179 kts 320°
2026-04-29 06:38 -16.05364 166.57150 5963 ft 178 kts 320°
2026-04-29 06:38 -16.04458 166.56224 5965 ft 179 kts 320°
2026-04-29 06:38 -16.03576 166.55322 5967 ft 179 kts 320°
2026-04-29 06:39 -16.02659 166.54384 5969 ft 179 kts 320°
2026-04-29 06:39 -16.01757 166.53459 5972 ft 179 kts 320°
2026-04-29 06:39 -16.00857 166.52537 5975 ft 179 kts 320°
2026-04-29 06:39 -15.99943 166.51602 5976 ft 179 kts 320°
2026-04-29 06:40 -15.99048 166.50687 5976 ft 179 kts 319°
2026-04-29 06:40 -15.97821 166.49431 5975 ft 179 kts 319°
2026-04-29 06:40 -15.97228 166.48822 5974 ft 179 kts 319°
2026-04-29 06:40 -15.96329 166.47897 5974 ft 179 kts 319°
2026-04-29 06:41 -15.95415 166.46965 5974 ft 179 kts 320°
2026-04-29 06:41 -15.94513 166.46042 5975 ft 179 kts 319°
2026-04-29 06:41 -15.93618 166.45128 5975 ft 179 kts 320°
2026-04-29 06:41 -15.92715 166.44205 5974 ft 179 kts 320°
2026-04-29 06:42 -15.91824 166.43294 5974 ft 179 kts 319°
2026-04-29 06:42 -15.90927 166.42377 5974 ft 179 kts 320°
2026-04-29 06:42 -15.90025 166.41455 5974 ft 179 kts 319°
2026-04-29 06:42 -15.89125 166.40535 5976 ft 180 kts 319°
2026-04-29 06:43 -15.88226 166.39618 5975 ft 180 kts 319°
2026-04-29 06:43 -15.87327 166.38696 5974 ft 180 kts 319°
2026-04-29 06:43 -15.86430 166.37779 5974 ft 180 kts 319°
2026-04-29 06:43 -15.85529 166.36855 5974 ft 179 kts 319°
2026-04-29 06:44 -15.84643 166.35950 5973 ft 180 kts 319°
2026-04-29 06:44 -15.83746 166.35033 5974 ft 179 kts 319°
2026-04-29 06:44 -15.82859 166.34123 5971 ft 179 kts 320°
2026-04-29 06:44 -15.81963 166.33211 5971 ft 179 kts 320°
2026-04-29 06:45 -15.81073 166.32300 5971 ft 179 kts 320°
2026-04-29 06:45 -15.80172 166.31381 5971 ft 179 kts 319°
2026-04-29 06:45 -15.79276 166.30463 5970 ft 180 kts 320°
2026-04-29 06:45 -15.78379 166.29547 5969 ft 180 kts 320°
2026-04-29 06:46 -15.77491 166.28639 5968 ft 180 kts 320°
2026-04-29 06:46 -15.76580 166.27707 5969 ft 180 kts 319°
2026-04-29 06:46 -15.75689 166.26799 5967 ft 180 kts 319°
2026-04-29 06:46 -15.74796 166.25884 5966 ft 180 kts 319°
2026-04-29 06:47 -15.73899 166.24968 5965 ft 180 kts 319°
2026-04-29 06:47 -15.72996 166.24043 5963 ft 180 kts 320°
2026-04-29 06:47 -15.72099 166.23129 5961 ft 179 kts 320°
2026-04-29 06:47 -15.71210 166.22220 5963 ft 179 kts 320°
2026-04-29 06:48 -15.70318 166.21307 5966 ft 179 kts 320°
2026-04-29 06:48 -15.69413 166.20384 5966 ft 179 kts 320°
2026-04-29 06:48 -15.68526 166.19479 5967 ft 179 kts 320°
2026-04-29 06:48 -15.67626 166.18562 5968 ft 179 kts 319°
2026-04-29 06:49 -15.66727 166.17644 5969 ft 179 kts 319°
2026-04-29 06:49 -15.65824 166.16722 5969 ft 180 kts 319°
2026-04-29 06:49 -15.64929 166.15808 5968 ft 180 kts 319°
2026-04-29 06:49 -15.64031 166.14890 5968 ft 180 kts 319°
2026-04-29 06:50 -15.63145 166.13989 5968 ft 180 kts 319°
2026-04-29 06:50 -15.62246 166.13071 5966 ft 180 kts 320°
2026-04-29 06:50 -15.61339 166.12143 5966 ft 180 kts 319°
2026-04-29 06:50 -15.60440 166.11227 5963 ft 180 kts 319°
2026-04-29 06:51 -15.59532 166.10301 5959 ft 180 kts 319°
2026-04-29 06:51 -15.58610 166.09361 5957 ft 180 kts 319°
2026-04-29 06:51 -15.57713 166.08446 5955 ft 180 kts 319°
2026-04-29 06:51 -15.56803 166.07518 5954 ft 180 kts 320°
2026-04-29 06:52 -15.55894 166.06593 5954 ft 180 kts 319°
2026-04-29 06:52 -15.55023 166.05705 5954 ft 180 kts 319°
2026-04-29 06:52 -15.54098 166.04761 5953 ft 181 kts 319°
2026-04-29 06:52 -15.53197 166.03845 5954 ft 181 kts 319°
2026-04-29 06:53 -15.52291 166.02920 5954 ft 181 kts 319°
2026-04-29 06:53 -15.51392 166.02006 5953 ft 181 kts 319°
2026-04-29 06:53 -15.50489 166.01085 5954 ft 181 kts 319°
2026-04-29 06:53 -15.49582 166.00160 5954 ft 180 kts 319°
2026-04-29 06:54 -15.48680 165.99240 5952 ft 180 kts 319°
2026-04-29 06:54 -15.47790 165.98337 5953 ft 180 kts 320°
2026-04-29 06:54 -15.46889 165.97418 5953 ft 180 kts 320°
2026-04-29 06:54 -15.45990 165.96506 5953 ft 180 kts 319°
2026-04-29 06:55 -15.45081 165.95581 5953 ft 180 kts 319°
2026-04-29 06:55 -15.44167 165.94650 5953 ft 181 kts 319°
2026-04-29 06:55 -15.43226 165.93698 5754 ft 192 kts 319°
2026-04-29 06:55 -15.42300 165.92740 5929 ft 178 kts 320°
2026-04-29 06:56 -15.41419 165.91847 5952 ft 178 kts 319°
2026-04-29 06:56 -15.40512 165.90929 5955 ft 179 kts 319°
2026-04-29 06:56 -15.39615 165.90016 5955 ft 180 kts 319°
2026-04-29 06:56 -15.38706 165.89092 5955 ft 180 kts 319°
2026-04-29 06:57 -15.37796 165.88168 5954 ft 181 kts 319°
2026-04-29 06:57 -15.36903 165.87262 5954 ft 181 kts 319°
2026-04-29 06:57 -15.35993 165.86334 5955 ft 181 kts 319°
2026-04-29 06:57 -15.35092 165.85422 5957 ft 181 kts 319°
2026-04-29 06:58 -15.34202 165.84518 5957 ft 181 kts 319°
2026-04-29 06:58 -15.33301 165.83600 5959 ft 181 kts 319°
2026-04-29 06:58 -15.32396 165.82683 5960 ft 182 kts 319°
2026-04-29 06:58 -15.31492 165.81763 5959 ft 182 kts 319°
2026-04-29 06:59 -15.30586 165.80843 5960 ft 182 kts 319°
2026-04-29 06:59 -15.29680 165.79923 5958 ft 182 kts 319°
2026-04-29 06:59 -15.28778 165.79007 5958 ft 182 kts 319°
2026-04-29 06:59 -15.27875 165.78090 5958 ft 181 kts 319°
2026-04-29 07:00 -15.26969 165.77171 5957 ft 182 kts 319°
2026-04-29 07:00 -15.26061 165.76251 5957 ft 181 kts 319°
2026-04-29 07:00 -15.25159 165.75333 5957 ft 181 kts 319°
2026-04-29 07:00 -15.24255 165.74416 5957 ft 181 kts 319°
2026-04-29 07:01 -15.23348 165.73496 5957 ft 182 kts 319°
2026-04-29 07:01 -15.22437 165.72572 5958 ft 182 kts 319°
2026-04-29 07:01 -15.21527 165.71649 5958 ft 182 kts 319°
2026-04-29 07:01 -15.20622 165.70731 5959 ft 182 kts 319°
2026-04-29 07:02 -15.19714 165.69810 5960 ft 181 kts 319°
2026-04-29 07:02 -15.18514 165.68593 5960 ft 181 kts 319°
2026-04-29 07:02 -15.17911 165.67982 5959 ft 181 kts 319°
2026-04-29 07:02 -15.17007 165.67065 5958 ft 181 kts 319°
2026-04-29 07:03 -15.16098 165.66144 5957 ft 181 kts 319°
2026-04-29 07:03 -15.15192 165.65227 5956 ft 181 kts 319°
2026-04-29 07:03 -15.14286 165.64307 5957 ft 181 kts 319°
2026-04-29 07:03 -15.13382 165.63391 5958 ft 181 kts 319°
2026-04-29 07:04 -15.12477 165.62476 5960 ft 181 kts 319°
2026-04-29 07:04 -15.11571 165.61559 5961 ft 181 kts 319°
2026-04-29 07:04 -15.10675 165.60651 5963 ft 181 kts 319°
2026-04-29 07:04 -15.09771 165.59735 5964 ft 181 kts 319°
2026-04-29 07:05 -15.08861 165.58815 5963 ft 181 kts 319°
2026-04-29 07:05 -15.07964 165.57906 5962 ft 181 kts 319°
2026-04-29 07:05 -15.07059 165.56988 5962 ft 182 kts 319°
2026-04-29 07:05 -15.06148 165.56068 5963 ft 182 kts 319°
2026-04-29 07:06 -15.05243 165.55150 5964 ft 182 kts 319°
2026-04-29 07:06 -15.04336 165.54231 5964 ft 182 kts 319°
2026-04-29 07:06 -15.03427 165.53313 5965 ft 182 kts 319°
2026-04-29 07:06 -15.02519 165.52394 5968 ft 182 kts 319°
2026-04-29 07:07 -15.01620 165.51486 5971 ft 181 kts 319°
2026-04-29 07:07 -15.00796 165.50652 5973 ft 181 kts 319°
2026-04-29 07:07 -14.99889 165.49734 5974 ft 181 kts 319°
2026-04-29 07:07 -14.98975 165.48810 5974 ft 182 kts 319°
2026-04-29 07:08 -14.98060 165.47885 5975 ft 182 kts 319°
2026-04-29 07:08 -14.97147 165.46962 5975 ft 182 kts 319°
2026-04-29 07:08 -14.96245 165.46053 5975 ft 182 kts 319°
2026-04-29 07:08 -14.95336 165.45132 5975 ft 182 kts 319°
2026-04-29 07:09 -14.94426 165.44211 5975 ft 182 kts 319°
2026-04-29 07:09 -14.93517 165.43292 5975 ft 182 kts 319°
2026-04-29 07:09 -14.92605 165.42372 5975 ft 182 kts 320°
2026-04-29 07:09 -14.91698 165.41455 5974 ft 182 kts 320°
2026-04-29 07:10 -14.90798 165.40546 5973 ft 182 kts 319°
2026-04-29 07:10 -14.89885 165.39624 5971 ft 182 kts 319°
2026-04-29 07:10 -14.88974 165.38705 5971 ft 182 kts 319°
2026-04-29 07:10 -14.88065 165.37787 5970 ft 182 kts 320°
2026-04-29 07:11 -14.87143 165.36856 5972 ft 182 kts 319°
2026-04-29 07:11 -14.86241 165.35948 5973 ft 183 kts 319°
2026-04-29 07:11 -14.85327 165.35025 5974 ft 183 kts 319°
2026-04-29 07:11 -14.84415 165.34105 5971 ft 182 kts 319°
2026-04-29 07:12 -14.83505 165.33186 5967 ft 182 kts 319°
2026-04-29 07:12 -14.82594 165.32265 5964 ft 182 kts 319°
2026-04-29 07:12 -14.81681 165.31345 5962 ft 182 kts 319°
2026-04-29 07:12 -14.80768 165.30423 5960 ft 182 kts 320°
2026-04-29 07:13 -14.79865 165.29512 5959 ft 182 kts 320°
2026-04-29 07:13 -14.78947 165.28586 5962 ft 182 kts 320°
2026-04-29 07:13 -14.78036 165.27667 5963 ft 181 kts 320°
2026-04-29 07:13 -14.77129 165.26753 5963 ft 181 kts 320°
2026-04-29 07:14 -14.76231 165.25848 5963 ft 181 kts 320°
2026-04-29 07:14 -14.75323 165.24933 5963 ft 181 kts 320°
2026-04-29 07:14 -14.74414 165.24019 5962 ft 181 kts 320°
2026-04-29 07:14 -14.73504 165.23102 5960 ft 181 kts 320°
2026-04-29 07:15 -14.72595 165.22186 5957 ft 182 kts 319°
2026-04-29 07:15 -14.71688 165.21274 5953 ft 182 kts 319°
2026-04-29 07:15 -14.70783 165.20360 5952 ft 182 kts 320°
2026-04-29 07:15 -14.69876 165.19446 5952 ft 182 kts 320°
2026-04-29 07:16 -14.68956 165.18520 5952 ft 182 kts 320°
2026-04-29 07:16 -14.68045 165.17600 5953 ft 182 kts 320°
2026-04-29 07:16 -14.67143 165.16693 5953 ft 182 kts 320°
2026-04-29 07:16 -14.66229 165.15773 5953 ft 181 kts 320°
2026-04-29 07:17 -14.65316 165.14854 5952 ft 181 kts 320°
2026-04-29 07:17 -14.64413 165.13947 5952 ft 181 kts 320°
2026-04-29 07:17 -14.63503 165.13029 5952 ft 181 kts 320°
2026-04-29 07:17 -14.62596 165.12117 5952 ft 181 kts 320°
2026-04-29 07:18 -14.61683 165.11200 5953 ft 181 kts 320°
2026-04-29 07:18 -14.60774 165.10288 5952 ft 182 kts 320°
2026-04-29 07:18 -14.59876 165.09383 5953 ft 182 kts 320°
2026-04-29 07:18 -14.58967 165.08467 5953 ft 182 kts 320°
2026-04-29 07:19 -14.58055 165.07550 5953 ft 182 kts 320°
2026-04-29 07:19 -14.57143 165.06633 5952 ft 182 kts 320°
2026-04-29 07:19 -14.56233 165.05718 5952 ft 182 kts 320°
2026-04-29 07:19 -14.55323 165.04803 5953 ft 182 kts 320°
2026-04-29 07:20 -14.54412 165.03889 5953 ft 182 kts 320°
2026-04-29 07:20 -14.53501 165.02972 5953 ft 182 kts 320°
2026-04-29 07:20 -14.52592 165.02058 5953 ft 181 kts 320°
2026-04-29 07:20 -14.51679 165.01144 5953 ft 181 kts 320°
2026-04-29 07:21 -14.50773 165.00235 5952 ft 181 kts 320°
2026-04-29 07:21 -14.49867 164.99324 5952 ft 181 kts 320°
2026-04-29 07:21 -14.48956 164.98407 5952 ft 182 kts 320°
2026-04-29 07:21 -14.48039 164.97487 5953 ft 182 kts 320°
2026-04-29 07:22 -14.47137 164.96582 5952 ft 182 kts 320°
2026-04-29 07:22 -14.46217 164.95656 5953 ft 183 kts 320°
2026-04-29 07:22 -14.45298 164.94734 5954 ft 183 kts 320°
2026-04-29 07:22 -14.44381 164.93814 5953 ft 183 kts 320°
2026-04-29 07:23 -14.43463 164.92892 5954 ft 183 kts 320°
2026-04-29 07:23 -14.42550 164.91977 5953 ft 182 kts 320°
2026-04-29 07:23 -14.41624 164.91048 5953 ft 182 kts 320°
2026-04-29 07:23 -14.40712 164.90134 5953 ft 182 kts 320°
2026-04-29 07:24 -14.39798 164.89215 5953 ft 181 kts 320°
2026-04-29 07:24 -14.38896 164.88309 5953 ft 181 kts 320°
2026-04-29 07:24 -14.37986 164.87398 5954 ft 181 kts 320°
2026-04-29 07:24 -14.37078 164.86487 5957 ft 181 kts 320°
2026-04-29 07:25 -14.36168 164.85576 5959 ft 182 kts 320°
2026-04-29 07:25 -14.35255 164.84662 5961 ft 182 kts 320°
2026-04-29 07:25 -14.34341 164.83742 5963 ft 183 kts 320°
2026-04-29 07:25 -14.33430 164.82829 5961 ft 183 kts 321°
2026-04-29 07:26 -14.32506 164.81905 5961 ft 183 kts 321°
2026-04-29 07:26 -14.31585 164.80981 5960 ft 183 kts 320°
2026-04-29 07:26 -14.30675 164.80072 5960 ft 182 kts 320°
2026-04-29 07:26 -14.29761 164.79153 5960 ft 182 kts 321°
2026-04-29 07:27 -14.28834 164.78226 5959 ft 182 kts 320°
2026-04-29 07:27 -14.27924 164.77316 5957 ft 182 kts 320°
2026-04-29 07:27 -14.27015 164.76404 5956 ft 181 kts 321°
2026-04-29 07:27 -14.26117 164.75503 5958 ft 181 kts 321°
2026-04-29 07:28 -14.25191 164.74576 5959 ft 182 kts 321°
2026-04-29 07:28 -14.24270 164.73654 5960 ft 182 kts 320°
2026-04-29 07:28 -14.23335 164.72722 5961 ft 182 kts 321°
2026-04-29 07:28 -14.22415 164.71800 5960 ft 182 kts 320°
2026-04-29 07:29 -14.21494 164.70879 5958 ft 183 kts 321°
2026-04-29 07:29 -14.20579 164.69961 5957 ft 183 kts 320°
2026-04-29 07:29 -14.19662 164.69046 5957 ft 183 kts 321°
2026-04-29 07:29 -14.18741 164.68124 5955 ft 183 kts 320°
2026-04-29 07:30 -14.17820 164.67201 5954 ft 183 kts 320°
2026-04-29 07:30 -14.16905 164.66289 5953 ft 182 kts 320°
2026-04-29 07:30 -14.16000 164.65381 5950 ft 182 kts 320°
2026-04-29 07:31 -14.14168 164.63550 5949 ft 183 kts 321°
2026-04-29 07:31 -14.13244 164.62624 5950 ft 183 kts 321°
2026-04-29 07:31 -14.12332 164.61714 5952 ft 183 kts 321°
2026-04-29 07:31 -14.11413 164.60796 5956 ft 183 kts 321°
2026-04-29 07:32 -14.10488 164.59872 5958 ft 183 kts 321°
2026-04-29 07:32 -14.09573 164.58958 5960 ft 183 kts 320°
2026-04-29 07:32 -14.08640 164.58029 5957 ft 183 kts 320°
2026-04-29 07:32 -14.07720 164.57109 5954 ft 183 kts 320°
2026-04-29 07:33 -14.06802 164.56189 5952 ft 183 kts 320°
2026-04-29 07:33 -14.05894 164.55283 5948 ft 183 kts 320°
2026-04-29 07:33 -14.04974 164.54366 5947 ft 182 kts 321°
2026-04-29 07:33 -14.04062 164.53450 5949 ft 182 kts 321°
2026-04-29 07:34 -14.03135 164.52527 5952 ft 182 kts 321°
2026-04-29 07:34 -14.02218 164.51611 5953 ft 182 kts 321°
2026-04-29 07:34 -14.01304 164.50700 5955 ft 182 kts 321°
2026-04-29 07:34 -14.00381 164.49779 5954 ft 183 kts 321°
2026-04-29 07:35 -13.99462 164.48862 5954 ft 183 kts 321°
2026-04-29 07:35 -13.98547 164.47951 5953 ft 184 kts 321°
2026-04-29 07:35 -13.97620 164.47026 5954 ft 183 kts 320°
2026-04-29 07:35 -13.96696 164.46103 5955 ft 183 kts 320°
2026-04-29 07:36 -13.95780 164.45190 5954 ft 183 kts 320°
2026-04-29 07:36 -13.94854 164.44269 5954 ft 183 kts 320°
2026-04-29 07:36 -13.93938 164.43352 5954 ft 183 kts 320°
2026-04-29 07:36 -13.93006 164.42419 5953 ft 183 kts 321°
2026-04-29 07:37 -13.92088 164.41507 5953 ft 183 kts 321°
2026-04-29 07:37 -13.91167 164.40587 5953 ft 183 kts 321°
2026-04-29 07:37 -13.90223 164.39648 5954 ft 183 kts 321°
2026-04-29 07:37 -13.89312 164.38741 5955 ft 183 kts 320°
2026-04-29 07:38 -13.88371 164.37805 5955 ft 183 kts 321°
2026-04-29 07:38 -13.87443 164.36877 5955 ft 184 kts 321°
2026-04-29 07:38 -13.86527 164.35965 5955 ft 184 kts 321°
2026-04-29 07:38 -13.85581 164.35025 5955 ft 184 kts 321°
2026-04-29 07:39 -13.84657 164.34105 5951 ft 184 kts 321°
2026-04-29 07:39 -13.83725 164.33176 5952 ft 183 kts 321°
2026-04-29 07:39 -13.82766 164.32219 5952 ft 183 kts 321°
2026-04-29 07:39 -13.81848 164.31303 5952 ft 183 kts 321°
2026-04-29 07:40 -13.80924 164.30386 5952 ft 183 kts 321°
2026-04-29 07:40 -13.79996 164.29462 5952 ft 183 kts 321°
2026-04-29 07:40 -13.79074 164.28543 5952 ft 183 kts 321°
2026-04-29 07:40 -13.78131 164.27606 5952 ft 183 kts 321°
2026-04-29 07:41 -13.77192 164.26672 5952 ft 184 kts 321°
2026-04-29 07:41 -13.76267 164.25751 5952 ft 184 kts 321°
2026-04-29 07:41 -13.75284 164.24774 5952 ft 183 kts 321°
2026-04-29 07:41 -13.74359 164.23854 5952 ft 183 kts 321°
2026-04-29 07:42 -13.73411 164.22911 5952 ft 183 kts 321°
2026-04-29 07:42 -13.72484 164.21989 5952 ft 183 kts 321°
2026-04-29 07:42 -13.71564 164.21072 5951 ft 183 kts 321°
2026-04-29 07:42 -13.70609 164.20125 5950 ft 183 kts 321°
2026-04-29 07:43 -13.69677 164.19196 5949 ft 183 kts 321°
2026-04-29 07:43 -13.68741 164.18266 5949 ft 183 kts 321°
2026-04-29 07:43 -13.67806 164.17337 5949 ft 183 kts 321°
2026-04-29 07:43 -13.66881 164.16419 5948 ft 183 kts 321°
2026-04-29 07:44 -13.65935 164.15479 5947 ft 184 kts 321°
2026-04-29 07:44 -13.65008 164.14560 5945 ft 184 kts 321°
2026-04-29 07:44 -13.64085 164.13641 5944 ft 184 kts 321°
2026-04-29 07:44 -13.63155 164.12717 5943 ft 183 kts 321°
2026-04-29 07:45 -13.62227 164.11795 5943 ft 183 kts 320°
2026-04-29 07:45 -13.61309 164.10886 5942 ft 183 kts 321°
2026-04-29 07:45 -13.60377 164.09958 5943 ft 183 kts 321°
2026-04-29 07:45 -13.59460 164.09045 5943 ft 183 kts 321°
2026-04-29 07:46 -13.58597 164.08189 5943 ft 183 kts 321°
2026-04-29 07:46 -13.57680 164.07281 5943 ft 183 kts 321°
2026-04-29 07:46 -13.56759 164.06364 5945 ft 183 kts 321°
2026-04-29 07:46 -13.55836 164.05450 5944 ft 183 kts 321°
2026-04-29 07:47 -13.54912 164.04532 5944 ft 183 kts 321°
2026-04-29 07:47 -13.53989 164.03618 5943 ft 183 kts 321°
2026-04-29 07:47 -13.53059 164.02696 5943 ft 183 kts 321°
2026-04-29 07:47 -13.52140 164.01781 5945 ft 183 kts 321°
2026-04-29 07:48 -13.51212 164.00864 5945 ft 183 kts 321°
2026-04-29 07:48 -13.50289 163.99947 5944 ft 183 kts 321°
2026-04-29 07:48 -13.49376 163.99042 5944 ft 183 kts 321°
2026-04-29 07:48 -13.48440 163.98112 5943 ft 183 kts 321°
2026-04-29 07:49 -13.47503 163.97185 5942 ft 183 kts 321°
2026-04-29 07:49 -13.46568 163.96258 5942 ft 183 kts 321°
2026-04-29 07:49 -13.45661 163.95355 5943 ft 183 kts 321°
2026-04-29 07:49 -13.44708 163.94408 5946 ft 183 kts 321°
2026-04-29 07:50 -13.43786 163.93488 5949 ft 182 kts 321°
2026-04-29 07:50 -13.42858 163.92563 5947 ft 183 kts 321°
2026-04-29 07:50 -13.41904 163.91612 5945 ft 183 kts 321°
2026-04-29 07:50 -13.40994 163.90706 5946 ft 183 kts 321°
2026-04-29 07:51 -13.40041 163.89758 5947 ft 183 kts 321°
2026-04-29 07:51 -13.39129 163.88850 5948 ft 183 kts 321°
2026-04-29 07:51 -13.38211 163.87936 5951 ft 183 kts 321°
2026-04-29 07:51 -13.37269 163.86999 5949 ft 183 kts 321°
2026-04-29 07:52 -13.36345 163.86079 5948 ft 183 kts 321°
2026-04-29 07:52 -13.35420 163.85158 5945 ft 183 kts 321°
2026-04-29 07:52 -13.34495 163.84236 5941 ft 183 kts 321°
2026-04-29 07:52 -13.33576 163.83322 5941 ft 183 kts 320°
2026-04-29 07:53 -13.32660 163.82414 5940 ft 183 kts 321°
2026-04-29 07:53 -13.31747 163.81505 5940 ft 182 kts 321°
2026-04-29 07:53 -13.30836 163.80597 5943 ft 182 kts 321°
2026-04-29 07:53 -13.29932 163.79697 5945 ft 182 kts 321°
2026-04-29 07:54 -13.29017 163.78787 5948 ft 182 kts 321°
2026-04-29 07:54 -13.28103 163.77879 5950 ft 182 kts 321°
2026-04-29 07:54 -13.27195 163.76976 5951 ft 182 kts 321°
2026-04-29 07:54 -13.26276 163.76064 5952 ft 183 kts 320°
2026-04-29 07:55 -13.25343 163.75139 5953 ft 183 kts 320°
2026-04-29 07:55 -13.24408 163.74205 5954 ft 183 kts 320°
2026-04-29 07:55 -13.23493 163.73296 5954 ft 183 kts 320°
2026-04-29 07:55 -13.22560 163.72371 5947 ft 183 kts 321°
2026-04-29 07:56 -13.21637 163.71451 5935 ft 183 kts 321°
2026-04-29 07:56 -13.20718 163.70541 5935 ft 183 kts 321°
2026-04-29 07:56 -13.19814 163.69641 5935 ft 182 kts 321°
2026-04-29 07:56 -13.18899 163.68733 5937 ft 182 kts 321°
2026-04-29 07:57 -13.17985 163.67825 5935 ft 183 kts 320°
2026-04-29 07:57 -13.17070 163.66917 5936 ft 182 kts 321°
2026-04-29 07:57 -13.16156 163.66008 5936 ft 183 kts 321°
2026-04-29 07:57 -13.15240 163.65100 5935 ft 183 kts 321°
2026-04-29 07:58 -13.14374 163.64243 5935 ft 183 kts 320°
2026-04-29 07:58 -13.13460 163.63333 5936 ft 183 kts 320°
2026-04-29 07:58 -13.12542 163.62422 5936 ft 183 kts 320°
2026-04-29 07:58 -13.11622 163.61508 5935 ft 183 kts 321°
2026-04-29 07:59 -13.10704 163.60596 5936 ft 183 kts 321°
2026-04-29 07:59 -13.09785 163.59685 5935 ft 183 kts 321°
2026-04-29 07:59 -13.08874 163.58781 5936 ft 183 kts 321°
2026-04-29 07:59 -13.08003 163.57919 5935 ft 182 kts 321°
2026-04-29 08:00 -13.07088 163.57013 5935 ft 182 kts 320°
2026-04-29 08:00 -13.06176 163.56107 5936 ft 182 kts 320°
2026-04-29 08:00 -13.05263 163.55202 5936 ft 182 kts 321°
2026-04-29 08:00 -13.04349 163.54297 5936 ft 182 kts 321°
2026-04-29 08:01 -13.03436 163.53391 5936 ft 182 kts 321°
2026-04-29 08:01 -13.02521 163.52483 5933 ft 183 kts 320°
2026-04-29 08:01 -13.01603 163.51575 5928 ft 183 kts 321°
2026-04-29 08:01 -13.00685 163.50661 5924 ft 184 kts 321°
2026-04-29 08:02 -12.99772 163.49757 5918 ft 184 kts 321°
2026-04-29 08:02 -12.98849 163.48843 5916 ft 184 kts 321°
2026-04-29 08:02 -12.97925 163.47931 5915 ft 184 kts 321°
2026-04-29 08:02 -12.97004 163.47018 5916 ft 183 kts 321°
2026-04-29 08:03 -12.96084 163.46106 5916 ft 183 kts 320°
2026-04-29 08:03 -12.95165 163.45197 5915 ft 183 kts 321°
2026-04-29 08:03 -12.94243 163.44281 5915 ft 183 kts 321°
2026-04-29 08:03 -12.93325 163.43375 5915 ft 182 kts 321°
2026-04-29 08:04 -12.92408 163.42465 5915 ft 182 kts 321°
2026-04-29 08:04 -12.91503 163.41571 5915 ft 182 kts 321°
2026-04-29 08:04 -12.90585 163.40659 5915 ft 183 kts 321°
2026-04-29 08:04 -12.89666 163.39751 5916 ft 183 kts 321°
2026-04-29 08:05 -12.88748 163.38843 5917 ft 184 kts 321°
2026-04-29 08:05 -12.87820 163.37923 5917 ft 184 kts 321°
2026-04-29 08:05 -12.86882 163.36995 5918 ft 184 kts 321°
2026-04-29 08:05 -12.85952 163.36079 5917 ft 184 kts 320°
2026-04-29 08:06 -12.85014 163.35149 5917 ft 183 kts 321°
2026-04-29 08:06 -12.84088 163.34233 5913 ft 183 kts 321°
2026-04-29 08:06 -12.83158 163.33313 5913 ft 183 kts 321°
2026-04-29 08:06 -12.82221 163.32384 5913 ft 182 kts 321°
2026-04-29 08:07 -12.81315 163.31490 5913 ft 182 kts 321°
2026-04-29 08:07 -12.80385 163.30571 5913 ft 182 kts 321°
2026-04-29 08:07 -12.79458 163.29654 5913 ft 182 kts 321°
2026-04-29 08:07 -12.78541 163.28748 5913 ft 183 kts 321°
2026-04-29 08:08 -12.77701 163.27919 5913 ft 183 kts 321°
2026-04-29 08:08 -12.76770 163.26996 5913 ft 183 kts 321°
2026-04-29 08:08 -12.75838 163.26077 5914 ft 183 kts 321°
2026-04-29 08:08 -12.74920 163.25171 5913 ft 183 kts 320°
2026-04-29 08:09 -12.73993 163.24255 5913 ft 183 kts 321°
2026-04-29 08:09 -12.73077 163.23347 5913 ft 183 kts 321°
2026-04-29 08:09 -12.72163 163.22444 5914 ft 182 kts 321°
2026-04-29 08:09 -12.71244 163.21536 5913 ft 183 kts 321°
2026-04-29 08:10 -12.70324 163.20625 5913 ft 182 kts 321°
2026-04-29 08:10 -12.69406 163.19722 5914 ft 182 kts 321°
2026-04-29 08:10 -12.68480 163.18810 5914 ft 183 kts 321°
2026-04-29 08:10 -12.67560 163.17902 5915 ft 183 kts 321°
2026-04-29 08:11 -12.66634 163.16986 5916 ft 184 kts 321°
2026-04-29 08:11 -12.65716 163.16080 5918 ft 184 kts 321°
2026-04-29 08:11 -12.64788 163.15166 5922 ft 183 kts 321°
2026-04-29 08:11 -12.63863 163.14255 5925 ft 183 kts 321°
2026-04-29 08:12 -12.62934 163.13338 5928 ft 183 kts 321°
2026-04-29 08:12 -12.62008 163.12422 5929 ft 183 kts 321°
2026-04-29 08:12 -12.61085 163.11513 5930 ft 183 kts 321°
2026-04-29 08:12 -12.60154 163.10594 5929 ft 183 kts 321°
2026-04-29 08:13 -12.59236 163.09688 5928 ft 182 kts 321°
2026-04-29 08:13 -12.58313 163.08774 5927 ft 183 kts 321°
2026-04-29 08:13 -12.57390 163.07866 5925 ft 183 kts 322°
2026-04-29 08:13 -12.56453 163.06941 5925 ft 183 kts 322°
2026-04-29 08:14 -12.55521 163.06024 5926 ft 183 kts 321°
2026-04-29 08:14 -12.54590 163.05109 5928 ft 183 kts 321°
2026-04-29 08:14 -12.53658 163.04187 5930 ft 183 kts 321°
2026-04-29 08:14 -12.52738 163.03284 5932 ft 183 kts 321°
2026-04-29 08:15 -12.51822 163.02380 5933 ft 183 kts 321°
2026-04-29 08:15 -12.50886 163.01456 5933 ft 182 kts 321°
2026-04-29 08:15 -12.49961 163.00543 5930 ft 183 kts 321°
2026-04-29 08:15 -12.49019 162.99615 5928 ft 183 kts 321°
2026-04-29 08:16 -12.48102 162.98714 5926 ft 183 kts 321°
2026-04-29 08:16 -12.47158 162.97781 5925 ft 183 kts 321°
2026-04-29 08:16 -12.46230 162.96869 5926 ft 183 kts 321°
2026-04-29 08:16 -12.45304 162.95960 5924 ft 183 kts 321°
2026-04-29 08:17 -12.44361 162.95030 5925 ft 183 kts 321°
2026-04-29 08:17 -12.43438 162.94119 5924 ft 183 kts 321°
2026-04-29 08:17 -12.42507 162.93208 5924 ft 183 kts 321°
2026-04-29 08:17 -12.41578 162.92291 5925 ft 183 kts 321°
2026-04-29 08:18 -12.40657 162.91383 5923 ft 183 kts 321°
2026-04-29 08:18 -12.39735 162.90479 5924 ft 183 kts 321°
2026-04-29 08:18 -12.38808 162.89565 5924 ft 183 kts 321°
2026-04-29 08:18 -12.37882 162.88652 5921 ft 183 kts 321°
2026-04-29 08:19 -12.36963 162.87744 5921 ft 184 kts 322°
2026-04-29 08:19 -12.36031 162.86830 5921 ft 184 kts 322°
2026-04-29 08:19 -12.35095 162.85913 5920 ft 184 kts 322°
2026-04-29 08:19 -12.34158 162.84988 5919 ft 184 kts 322°
2026-04-29 08:20 -12.33234 162.84079 5919 ft 184 kts 322°
2026-04-29 08:20 -12.32296 162.83159 5921 ft 184 kts 321°
2026-04-29 08:20 -12.31366 162.82248 5920 ft 184 kts 321°
2026-04-29 08:20 -12.30437 162.81332 5921 ft 184 kts 321°
2026-04-29 08:21 -12.29509 162.80423 5921 ft 184 kts 321°
2026-04-29 08:21 -12.28588 162.79517 5920 ft 184 kts 321°
2026-04-29 08:21 -12.27661 162.78603 5921 ft 184 kts 321°
2026-04-29 08:21 -12.26721 162.77678 5920 ft 184 kts 321°
2026-04-29 08:22 -12.25803 162.76775 5917 ft 184 kts 322°
2026-04-29 08:22 -12.24855 162.75842 5917 ft 184 kts 322°
2026-04-29 08:22 -12.23935 162.74939 5919 ft 184 kts 321°
2026-04-29 08:22 -12.22994 162.74017 5917 ft 183 kts 322°
2026-04-29 08:23 -12.22077 162.73114 5917 ft 183 kts 322°
2026-04-29 08:23 -12.21139 162.72195 5916 ft 183 kts 322°
2026-04-29 08:23 -12.20212 162.71287 5917 ft 183 kts 321°
2026-04-29 08:23 -12.19283 162.70377 5915 ft 183 kts 321°
2026-04-29 08:24 -12.18344 162.69455 5914 ft 183 kts 321°
2026-04-29 08:24 -12.17409 162.68536 5914 ft 183 kts 321°
2026-04-29 08:24 -12.16485 162.67627 5915 ft 184 kts 321°
2026-04-29 08:24 -12.15539 162.66696 5916 ft 184 kts 321°
2026-04-29 08:25 -12.14609 162.65785 5915 ft 184 kts 321°
2026-04-29 08:25 -12.13673 162.64867 5916 ft 184 kts 321°
2026-04-29 08:25 -12.12731 162.63940 5915 ft 184 kts 321°
2026-04-29 08:25 -12.11805 162.63031 5915 ft 184 kts 321°
2026-04-29 08:26 -12.10867 162.62112 5916 ft 184 kts 321°
2026-04-29 08:26 -12.09940 162.61206 5916 ft 184 kts 322°
2026-04-29 08:26 -12.09011 162.60292 5917 ft 184 kts 322°
2026-04-29 08:26 -12.08065 162.59367 5916 ft 184 kts 321°
2026-04-29 08:27 -12.07132 162.58455 5916 ft 184 kts 321°
2026-04-29 08:27 -12.06193 162.57532 5915 ft 184 kts 321°
2026-04-29 08:27 -12.05262 162.56619 5916 ft 184 kts 321°
2026-04-29 08:27 -12.04338 162.55711 5914 ft 184 kts 321°
2026-04-29 08:28 -12.03394 162.54785 5917 ft 184 kts 321°
2026-04-29 08:28 -12.02458 162.53870 5917 ft 184 kts 322°
2026-04-29 08:28 -12.01525 162.52954 5920 ft 184 kts 322°
2026-04-29 08:28 -12.00588 162.52035 5924 ft 183 kts 322°
2026-04-29 08:29 -11.99661 162.51128 5926 ft 183 kts 322°
2026-04-29 08:29 -11.98719 162.50206 5928 ft 184 kts 322°
2026-04-29 08:29 -11.97798 162.49306 5928 ft 184 kts 321°
2026-04-29 08:29 -11.96939 162.48465 5927 ft 184 kts 321°
2026-04-29 08:30 -11.96015 162.47559 5926 ft 184 kts 321°
2026-04-29 08:30 -11.94213 162.45795 5925 ft 184 kts 321°
2026-04-29 08:30 -11.93270 162.44867 5925 ft 184 kts 321°
2026-04-29 08:31 -11.92311 162.43935 5923 ft 184 kts 321°
2026-04-29 08:31 -11.91351 162.42987 5925 ft 184 kts 321°
2026-04-29 08:31 -11.90362 162.42023 5924 ft 184 kts 322°
2026-04-29 08:31 -11.89401 162.41081 5925 ft 184 kts 322°
2026-04-29 08:32 -11.88475 162.40173 5928 ft 184 kts 321°
2026-04-29 08:32 -11.87483 162.39208 5925 ft 185 kts 322°
2026-04-29 08:32 -11.86556 162.38301 5925 ft 185 kts 322°
2026-04-29 08:32 -11.85580 162.37344 5924 ft 185 kts 321°
2026-04-29 08:33 -11.84643 162.36430 5923 ft 185 kts 321°
2026-04-29 08:33 -11.83695 162.35501 5923 ft 185 kts 321°
2026-04-29 08:33 -11.82741 162.34567 5917 ft 185 kts 321°
2026-04-29 08:33 -11.81803 162.33649 5913 ft 185 kts 321°
2026-04-29 08:34 -11.80855 162.32726 5912 ft 184 kts 321°
2026-04-29 08:34 -11.79911 162.31796 5913 ft 185 kts 322°
2026-04-29 08:34 -11.78964 162.30873 5914 ft 185 kts 321°
2026-04-29 08:34 -11.78018 162.29950 5913 ft 185 kts 321°
2026-04-29 08:35 -11.77090 162.29040 5912 ft 184 kts 322°
2026-04-29 08:35 -11.76163 162.28137 5913 ft 184 kts 322°
2026-04-29 08:35 -11.75216 162.27212 5913 ft 184 kts 322°
2026-04-29 08:35 -11.74292 162.26306 5913 ft 183 kts 322°
2026-04-29 08:36 -11.73367 162.25404 5913 ft 183 kts 322°
2026-04-29 08:36 -11.72435 162.24497 5913 ft 183 kts 322°
2026-04-29 08:36 -11.71519 162.23599 5913 ft 183 kts 322°
2026-04-29 08:36 -11.70584 162.22687 5912 ft 184 kts 321°
2026-04-29 08:37 -11.69653 162.21779 5912 ft 184 kts 321°
2026-04-29 08:37 -11.68719 162.20865 5913 ft 184 kts 322°
2026-04-29 08:37 -11.67787 162.19954 5911 ft 184 kts 322°
2026-04-29 08:37 -11.66844 162.19032 5912 ft 185 kts 322°
2026-04-29 08:38 -11.65919 162.18129 5913 ft 185 kts 322°
2026-04-29 08:38 -11.64983 162.17219 5913 ft 184 kts 321°
2026-04-29 08:38 -11.64049 162.16304 5912 ft 183 kts 322°
2026-04-29 08:38 -11.63121 162.15398 5913 ft 183 kts 322°
2026-04-29 08:39 -11.62199 162.14499 5912 ft 183 kts 322°
2026-04-29 08:39 -11.61276 162.13600 5910 ft 183 kts 322°
2026-04-29 08:39 -11.60356 162.12705 5908 ft 183 kts 321°
2026-04-29 08:39 -11.59427 162.11798 5906 ft 184 kts 321°
2026-04-29 08:40 -11.58500 162.10892 5906 ft 184 kts 322°
2026-04-29 08:40 -11.57566 162.09982 5905 ft 184 kts 321°
2026-04-29 08:40 -11.56638 162.09071 5904 ft 185 kts 322°
2026-04-29 08:40 -11.55707 162.08165 5905 ft 185 kts 322°
2026-04-29 08:41 -11.54785 162.07268 5906 ft 184 kts 322°
2026-04-29 08:41 -11.53855 162.06360 5905 ft 184 kts 322°
2026-04-29 08:41 -11.52927 162.05455 5904 ft 184 kts 322°
2026-04-29 08:41 -11.52025 162.04578 5904 ft 183 kts 322°
2026-04-29 08:42 -11.51156 162.03731 5903 ft 183 kts 322°
2026-04-29 08:42 -11.50225 162.02826 5906 ft 182 kts 322°
2026-04-29 08:42 -11.49303 162.01926 5910 ft 183 kts 322°
2026-04-29 08:42 -11.48387 162.01035 5914 ft 183 kts 322°
2026-04-29 08:43 -11.47462 162.00131 5915 ft 183 kts 322°
2026-04-29 08:43 -11.46525 161.99217 5916 ft 184 kts 321°
2026-04-29 08:43 -11.45602 161.98317 5918 ft 184 kts 321°
2026-04-29 08:43 -11.44662 161.97401 5921 ft 184 kts 321°
2026-04-29 08:44 -11.43726 161.96492 5923 ft 184 kts 322°
2026-04-29 08:44 -11.42805 161.95593 5922 ft 184 kts 322°
2026-04-29 08:44 -11.41870 161.94684 5922 ft 184 kts 322°
2026-04-29 08:44 -11.40938 161.93776 5921 ft 183 kts 322°
2026-04-29 08:45 -11.40011 161.92874 5920 ft 183 kts 322°
2026-04-29 08:45 -11.39093 161.91978 5921 ft 183 kts 322°
2026-04-29 08:45 -11.38162 161.91075 5922 ft 183 kts 322°
2026-04-29 08:45 -11.37238 161.90176 5923 ft 184 kts 322°
2026-04-29 08:46 -11.36305 161.89265 5922 ft 184 kts 321°
2026-04-29 08:46 -11.35362 161.88350 5921 ft 185 kts 322°
2026-04-29 08:46 -11.34440 161.87453 5920 ft 185 kts 321°
2026-04-29 08:46 -11.33505 161.86545 5921 ft 185 kts 322°
2026-04-29 08:47 -11.32559 161.85620 5920 ft 185 kts 321°
2026-04-29 08:47 -11.31628 161.84714 5919 ft 184 kts 321°
2026-04-29 08:47 -11.30705 161.83820 5917 ft 184 kts 322°
2026-04-29 08:47 -11.29773 161.82910 5915 ft 184 kts 322°
2026-04-29 08:48 -11.28842 161.82007 5914 ft 183 kts 322°
2026-04-29 08:48 -11.27916 161.81105 5914 ft 183 kts 322°
2026-04-29 08:48 -11.26993 161.80208 5914 ft 183 kts 322°
2026-04-29 08:48 -11.26067 161.79308 5914 ft 183 kts 322°
2026-04-29 08:49 -11.25137 161.78403 5914 ft 183 kts 322°
2026-04-29 08:49 -11.24213 161.77506 5914 ft 183 kts 322°
2026-04-29 08:49 -11.23285 161.76605 5914 ft 184 kts 322°
2026-04-29 08:49 -11.22360 161.75707 5915 ft 184 kts 322°
2026-04-29 08:50 -11.21429 161.74800 5915 ft 185 kts 321°
2026-04-29 08:50 -11.20495 161.73897 5913 ft 185 kts 321°
2026-04-29 08:50 -11.19557 161.72983 5912 ft 185 kts 321°
2026-04-29 08:50 -11.18633 161.72082 5910 ft 184 kts 321°
2026-04-29 08:51 -11.17699 161.71178 5910 ft 184 kts 321°
2026-04-29 08:51 -11.16777 161.70281 5909 ft 184 kts 321°
2026-04-29 08:51 -11.15846 161.69374 5910 ft 184 kts 321°
2026-04-29 08:51 -11.14913 161.68468 5909 ft 184 kts 322°
2026-04-29 08:52 -11.13991 161.67572 5908 ft 184 kts 322°
2026-04-29 08:52 -11.13052 161.66661 5908 ft 184 kts 321°
2026-04-29 08:52 -11.12122 161.65764 5906 ft 184 kts 322°
2026-04-29 08:52 -11.11182 161.64848 5908 ft 185 kts 322°
2026-04-29 08:53 -11.10247 161.63942 5907 ft 185 kts 321°
2026-04-29 08:53 -11.09306 161.63026 5907 ft 185 kts 321°
2026-04-29 08:53 -11.08369 161.62118 5908 ft 184 kts 321°
2026-04-29 08:53 -11.07437 161.61215 5909 ft 184 kts 321°
2026-04-29 08:54 -11.06509 161.60312 5908 ft 184 kts 321°
2026-04-29 08:54 -11.05575 161.59407 5907 ft 184 kts 321°
2026-04-29 08:54 -11.04645 161.58501 5908 ft 184 kts 322°
2026-04-29 08:54 -11.03711 161.57596 5907 ft 183 kts 322°
2026-04-29 08:55 -11.02782 161.56694 5908 ft 184 kts 322°
2026-04-29 08:55 -11.01842 161.55785 5909 ft 184 kts 322°
2026-04-29 08:55 -11.00901 161.54875 5908 ft 184 kts 322°
2026-04-29 08:55 -10.99964 161.53966 5909 ft 185 kts 322°
2026-04-29 08:56 -10.99026 161.53056 5908 ft 185 kts 321°
2026-04-29 08:56 -10.98086 161.52145 5908 ft 185 kts 321°
2026-04-29 08:56 -10.97147 161.51234 5905 ft 185 kts 321°
2026-04-29 08:56 -10.96210 161.50325 5903 ft 185 kts 321°
2026-04-29 08:57 -10.95276 161.49419 5902 ft 184 kts 321°
2026-04-29 08:57 -10.94332 161.48506 5903 ft 184 kts 321°
2026-04-29 08:57 -10.93411 161.47613 5903 ft 183 kts 322°
2026-04-29 08:57 -10.92477 161.46706 5905 ft 183 kts 322°
2026-04-29 08:58 -10.91543 161.45799 5908 ft 184 kts 322°
2026-04-29 08:58 -10.90602 161.44891 5913 ft 184 kts 322°
2026-04-29 08:58 -10.89679 161.43996 5917 ft 184 kts 321°
2026-04-29 08:58 -10.88737 161.43085 5920 ft 185 kts 321°
2026-04-29 08:59 -10.87773 161.42154 5920 ft 185 kts 321°
2026-04-29 08:59 -10.86812 161.41220 5919 ft 185 kts 321°
2026-04-29 08:59 -10.85875 161.40312 5918 ft 185 kts 321°
2026-04-29 08:59 -10.84932 161.39398 5917 ft 184 kts 321°
2026-04-29 09:00 -10.83994 161.38490 5917 ft 184 kts 321°
2026-04-29 09:00 -10.83067 161.37592 5917 ft 184 kts 321°
2026-04-29 09:00 -10.82127 161.36684 5917 ft 184 kts 321°
2026-04-29 09:00 -10.81175 161.35761 5918 ft 184 kts 321°
2026-04-29 09:01 -10.80244 161.34859 5917 ft 184 kts 321°
2026-04-29 09:01 -10.79284 161.33933 5914 ft 184 kts 321°
2026-04-29 09:01 -10.78345 161.33023 5913 ft 183 kts 321°
2026-04-29 09:01 -10.77415 161.32120 5912 ft 183 kts 322°
2026-04-29 09:02 -10.76469 161.31210 5913 ft 183 kts 321°
2026-04-29 09:02 -10.75538 161.30307 5913 ft 183 kts 321°
2026-04-29 09:02 -10.74601 161.29402 5913 ft 184 kts 321°
2026-04-29 09:02 -10.73663 161.28496 5913 ft 184 kts 321°
2026-04-29 09:03 -10.72722 161.27585 5914 ft 184 kts 321°
2026-04-29 09:03 -10.71787 161.26682 5915 ft 184 kts 321°
2026-04-29 09:03 -10.70849 161.25772 5916 ft 184 kts 321°
2026-04-29 09:03 -10.69923 161.24876 5917 ft 184 kts 321°
2026-04-29 09:04 -10.68968 161.23950 5919 ft 184 kts 321°
2026-04-29 09:04 -10.68030 161.23045 5918 ft 184 kts 321°
2026-04-29 09:04 -10.67100 161.22145 5917 ft 184 kts 321°
2026-04-29 09:04 -10.66158 161.21234 5916 ft 184 kts 321°
2026-04-29 09:05 -10.65216 161.20331 5914 ft 183 kts 324°
2026-04-29 09:05 -10.64085 161.19742 5917 ft 176 kts 348°
2026-04-29 09:05 -10.62898 161.19368 5917 ft 176 kts 349°
2026-04-29 09:05 -10.61722 161.19023 5917 ft 176 kts 349°
2026-04-29 09:06 -10.60515 161.18666 5918 ft 176 kts 349°
2026-04-29 09:06 -10.59341 161.18315 5916 ft 176 kts 349°
2026-04-29 09:06 -10.58155 161.17953 5915 ft 176 kts 348°
2026-04-29 09:06 -10.56953 161.17587 5913 ft 176 kts 349°
2026-04-29 09:07 -10.55762 161.17221 5912 ft 176 kts 348°
2026-04-29 09:07 -10.54589 161.16862 5910 ft 176 kts 348°
2026-04-29 09:07 -10.53397 161.16496 5907 ft 176 kts 349°
2026-04-29 09:07 -10.52225 161.16135 5906 ft 176 kts 349°
2026-04-29 09:08 -10.51047 161.15771 5908 ft 176 kts 349°
2026-04-29 09:08 -10.49865 161.15408 5909 ft 175 kts 349°
2026-04-29 09:08 -10.48692 161.15047 5912 ft 175 kts 349°
2026-04-29 09:08 -10.47517 161.14684 5913 ft 174 kts 349°
2026-04-29 09:09 -10.46358 161.14328 5913 ft 174 kts 349°
2026-04-29 09:09 -10.45190 161.13971 5913 ft 175 kts 349°
2026-04-29 09:09 -10.44013 161.13609 5914 ft 175 kts 348°
2026-04-29 09:09 -10.42840 161.13249 5914 ft 174 kts 348°
2026-04-29 09:10 -10.41667 161.12886 5913 ft 174 kts 348°
2026-04-29 09:10 -10.40507 161.12529 5913 ft 174 kts 348°
2026-04-29 09:10 -10.39334 161.12169 5912 ft 175 kts 349°
2026-04-29 09:10 -10.38163 161.11807 5913 ft 175 kts 349°
2026-04-29 09:11 -10.36992 161.11449 5914 ft 175 kts 349°
2026-04-29 09:11 -10.35814 161.11085 5913 ft 175 kts 349°
2026-04-29 09:11 -10.34639 161.10724 5913 ft 176 kts 349°
2026-04-29 09:11 -10.33462 161.10365 5914 ft 176 kts 349°
2026-04-29 09:12 -10.32282 161.10002 5914 ft 176 kts 349°
2026-04-29 09:12 -10.31103 161.09641 5914 ft 176 kts 349°
2026-04-29 09:12 -10.29941 161.09285 5914 ft 175 kts 349°
2026-04-29 09:12 -10.28769 161.08926 5913 ft 175 kts 349°
2026-04-29 09:13 -10.27595 161.08566 5913 ft 174 kts 349°
2026-04-29 09:13 -10.26421 161.08211 5913 ft 174 kts 349°
2026-04-29 09:13 -10.25256 161.07854 5914 ft 174 kts 348°
2026-04-29 09:13 -10.24081 161.07497 5913 ft 175 kts 349°
2026-04-29 09:14 -10.22947 161.07150 5913 ft 175 kts 349°
2026-04-29 09:14 -10.21767 161.06789 5913 ft 175 kts 349°
2026-04-29 09:14 -10.20665 161.06455 5912 ft 176 kts 349°
2026-04-29 09:14 -10.19486 161.06096 5911 ft 176 kts 349°
2026-04-29 09:15 -10.18304 161.05736 5906 ft 176 kts 349°
2026-04-29 09:15 -10.17117 161.05371 5901 ft 176 kts 349°
2026-04-29 09:15 -10.15936 161.05013 5896 ft 176 kts 349°
2026-04-29 09:15 -10.14774 161.04658 5894 ft 175 kts 349°
2026-04-29 09:16 -10.13601 161.04300 5894 ft 175 kts 349°
2026-04-29 09:16 -10.12431 161.03941 5892 ft 175 kts 349°
2026-04-29 09:16 -10.11258 161.03586 5892 ft 175 kts 349°
2026-04-29 09:16 -10.10090 161.03229 5891 ft 175 kts 349°
2026-04-29 09:17 -10.08916 161.02873 5893 ft 175 kts 349°
2026-04-29 09:17 -10.07737 161.02512 5893 ft 175 kts 349°
2026-04-29 09:17 -10.06555 161.02153 5892 ft 176 kts 349°
2026-04-29 09:17 -10.05388 161.01799 5893 ft 176 kts 349°
2026-04-29 09:18 -10.04205 161.01439 5893 ft 176 kts 349°
2026-04-29 09:18 -10.03022 161.01079 5893 ft 176 kts 349°
2026-04-29 09:18 -10.01857 161.00723 5892 ft 175 kts 349°
2026-04-29 09:18 -10.00685 161.00365 5893 ft 175 kts 349°
2026-04-29 09:19 -9.99507 161.00006 5893 ft 175 kts 349°
2026-04-29 09:19 -9.98337 160.99651 5892 ft 175 kts 348°
2026-04-29 09:19 -9.97167 160.99292 5892 ft 175 kts 349°
2026-04-29 09:19 -9.95987 160.98932 5892 ft 175 kts 349°
2026-04-29 09:20 -9.94817 160.98575 5892 ft 175 kts 349°
2026-04-29 09:20 -9.93658 160.98221 5892 ft 174 kts 349°
2026-04-29 09:20 -9.92486 160.97862 5895 ft 174 kts 349°
2026-04-29 09:20 -9.91313 160.97504 5899 ft 175 kts 349°
2026-04-29 09:21 -9.90137 160.97148 5898 ft 175 kts 349°
2026-04-29 09:21 -9.88967 160.96793 5900 ft 175 kts 349°
2026-04-29 09:21 -9.87778 160.96428 5900 ft 176 kts 349°
2026-04-29 09:21 -9.86607 160.96071 5900 ft 176 kts 348°
2026-04-29 09:22 -9.85483 160.95540 5904 ft 185 kts 319°
2026-04-29 09:22 -9.84729 160.94450 5906 ft 188 kts 308°
2026-04-29 09:22 -9.83975 160.93365 5903 ft 187 kts 309°
2026-04-29 09:22 -9.83220 160.92267 5905 ft 187 kts 309°
2026-04-29 09:23 -9.82475 160.91179 5905 ft 187 kts 309°
2026-04-29 09:23 -9.81725 160.90073 5906 ft 188 kts 309°
2026-04-29 09:23 -9.80976 160.88960 5907 ft 188 kts 309°
2026-04-29 09:23 -9.80224 160.87839 5909 ft 188 kts 308°
2026-04-29 09:24 -9.79479 160.86729 5907 ft 188 kts 308°
2026-04-29 09:24 -9.78728 160.85605 5906 ft 188 kts 308°
2026-04-29 09:24 -9.77984 160.84491 5905 ft 188 kts 308°
2026-04-29 09:24 -9.77234 160.83369 5908 ft 188 kts 308°
2026-04-29 09:25 -9.76487 160.82248 5912 ft 188 kts 308°
2026-04-29 09:25 -9.75741 160.81133 5915 ft 188 kts 308°
2026-04-29 09:25 -9.74986 160.80000 5918 ft 188 kts 308°
2026-04-29 09:25 -9.74220 160.78857 5920 ft 188 kts 308°
2026-04-29 09:26 -9.73479 160.77748 5920 ft 188 kts 308°
2026-04-29 09:26 -9.72741 160.76640 5921 ft 188 kts 308°
2026-04-29 09:26 -9.71994 160.75526 5920 ft 188 kts 308°
2026-04-29 09:26 -9.71243 160.74406 5922 ft 188 kts 308°
2026-04-29 09:27 -9.70494 160.73282 5927 ft 188 kts 308°
2026-04-29 09:27 -9.69758 160.72180 5930 ft 189 kts 308°
2026-04-29 09:27 -9.69000 160.71050 5936 ft 188 kts 307°
2026-04-29 09:27 -9.68257 160.69940 5941 ft 189 kts 308°
2026-04-29 09:28 -9.67511 160.68822 5943 ft 189 kts 308°
2026-04-29 09:28 -9.66768 160.67709 5945 ft 189 kts 307°
2026-04-29 09:28 -9.66019 160.66594 5945 ft 189 kts 308°
2026-04-29 09:28 -9.65271 160.65471 5945 ft 189 kts 308°
2026-04-29 09:29 -9.64533 160.64366 5946 ft 189 kts 308°
2026-04-29 09:29 -9.63041 160.62135 5948 ft 188 kts 308°
2026-04-29 09:29 -9.62299 160.61029 5949 ft 189 kts 307°
2026-04-29 09:30 -9.61551 160.59911 5947 ft 189 kts 307°
2026-04-29 09:30 -9.60805 160.58795 5946 ft 189 kts 308°
2026-04-29 09:30 -9.60055 160.57675 5945 ft 189 kts 307°
2026-04-29 09:30 -9.59313 160.56567 5945 ft 189 kts 308°
2026-04-29 09:31 -9.58554 160.55435 5946 ft 189 kts 308°
2026-04-29 09:31 -9.57822 160.54343 5946 ft 189 kts 307°
2026-04-29 09:31 -9.57081 160.53232 5947 ft 189 kts 307°
2026-04-29 09:31 -9.56412 160.52228 5942 ft 189 kts 308°
2026-04-29 09:32 -9.55663 160.51105 5936 ft 189 kts 308°
2026-04-29 09:32 -9.54909 160.49973 5929 ft 189 kts 308°
2026-04-29 09:32 -9.54157 160.48853 5925 ft 188 kts 308°
2026-04-29 09:32 -9.53425 160.47755 6005 ft 184 kts 308°
2026-04-29 09:33 -9.52692 160.46664 6013 ft 186 kts 308°
2026-04-29 09:33 -9.51948 160.45552 6012 ft 187 kts 308°
2026-04-29 09:33 -9.51182 160.44411 6010 ft 188 kts 307°
2026-04-29 09:33 -9.50424 160.43278 6009 ft 189 kts 308°
2026-04-29 09:34 -9.49673 160.42156 6009 ft 190 kts 308°
2026-04-29 09:34 -9.48914 160.41025 6009 ft 190 kts 308°
2026-04-29 09:34 -9.48150 160.39888 6008 ft 190 kts 307°
2026-04-29 09:34 -9.47403 160.38773 6008 ft 190 kts 308°
2026-04-29 09:35 -9.46628 160.37614 6012 ft 190 kts 307°
2026-04-29 09:35 -9.45870 160.36482 6013 ft 190 kts 307°
2026-04-29 09:35 -9.45105 160.35345 6012 ft 189 kts 307°
2026-04-29 09:35 -9.44319 160.34170 6007 ft 189 kts 308°
2026-04-29 09:36 -9.43568 160.33049 6006 ft 189 kts 307°
2026-04-29 09:36 -9.42820 160.31935 6004 ft 189 kts 308°
2026-04-29 09:36 -9.42069 160.30817 6005 ft 189 kts 308°
2026-04-29 09:36 -9.41332 160.29717 6005 ft 189 kts 307°
2026-04-29 09:37 -9.40552 160.28557 6006 ft 189 kts 308°
2026-04-29 09:37 -9.39785 160.27414 6006 ft 189 kts 308°
2026-04-29 09:37 -9.39042 160.26305 6008 ft 189 kts 308°
2026-04-29 09:37 -9.38245 160.25119 6009 ft 189 kts 308°
2026-04-29 09:38 -9.37501 160.24008 6010 ft 189 kts 308°
2026-04-29 09:38 -9.36751 160.22893 6010 ft 189 kts 308°
2026-04-29 09:38 -9.35974 160.21735 6008 ft 190 kts 308°
2026-04-29 09:38 -9.35222 160.20615 6002 ft 190 kts 307°
2026-04-29 09:39 -9.34487 160.19522 6012 ft 189 kts 308°
2026-04-29 09:39 -9.33757 160.18391 5992 ft 189 kts 309°
2026-04-29 09:39 -9.33013 160.17305 6003 ft 189 kts 308°
2026-04-29 09:39 -9.32276 160.16194 6000 ft 188 kts 310°
2026-04-29 09:40 -9.31527 160.15099 5997 ft 189 kts 307°
2026-04-29 09:40 -9.30784 160.13998 6020 ft 189 kts 307°
2026-04-29 09:40 -9.30046 160.12898 5999 ft 190 kts 308°
2026-04-29 09:40 -9.29296 160.11786 5965 ft 192 kts 309°
2026-04-29 09:41 -9.28551 160.10648 5892 ft 194 kts 307°
2026-04-29 09:41 -9.27785 160.09534 5796 ft 195 kts 305°
2026-04-29 09:41 -9.27025 160.08391 5693 ft 195 kts 307°
2026-04-29 09:41 -9.26192 160.07164 5595 ft 195 kts 309°
2026-04-29 09:42 -9.25418 160.06017 5492 ft 191 kts 307°
2026-04-29 09:42 -9.24663 160.04901 5392 ft 189 kts 307°
2026-04-29 09:42 -9.23903 160.03767 5292 ft 188 kts 307°
2026-04-29 09:42 -9.23144 160.02635 5193 ft 187 kts 308°
2026-04-29 09:43 -9.22407 160.01541 5097 ft 187 kts 308°
2026-04-29 09:43 -9.21655 160.00420 5008 ft 186 kts 307°
2026-04-29 09:43 -9.21279 159.99175 4998 ft 187 kts 261°
2026-04-29 09:43 -9.21754 159.97992 4998 ft 182 kts 237°
2026-04-29 09:44 -9.22503 159.96964 4993 ft 179 kts 226°
2026-04-29 09:44 -9.23356 159.96028 4992 ft 177 kts 223°
2026-04-29 09:44 -9.24228 159.95131 4992 ft 177 kts 221°
2026-04-29 09:44 -9.25101 159.94253 4990 ft 176 kts 221°
2026-04-29 09:45 -9.25968 159.93384 4993 ft 176 kts 221°
2026-04-29 09:45 -9.26847 159.92500 4995 ft 176 kts 221°
2026-04-29 09:45 -9.27719 159.91628 4998 ft 176 kts 221°
2026-04-29 09:45 -9.28590 159.90755 4999 ft 176 kts 221°
2026-04-29 09:46 -9.29456 159.89888 5002 ft 176 kts 221°
2026-04-29 09:46 -9.30331 159.89012 5004 ft 176 kts 221°
2026-04-29 09:46 -9.31206 159.88133 5006 ft 176 kts 221°
2026-04-29 09:46 -9.32086 159.87250 5004 ft 177 kts 221°
2026-04-29 09:47 -9.32965 159.86371 5003 ft 177 kts 221°
2026-04-29 09:47 -9.33838 159.85494 5005 ft 177 kts 221°
2026-04-29 09:47 -9.34714 159.84616 5007 ft 176 kts 221°
2026-04-29 09:47 -9.35587 159.83739 5009 ft 176 kts 221°
2026-04-29 09:48 -9.36456 159.82867 5013 ft 176 kts 221°
2026-04-29 09:48 -9.37329 159.81990 5017 ft 176 kts 221°
2026-04-29 09:48 -9.38205 159.81114 5022 ft 176 kts 221°
2026-04-29 09:48 -9.39083 159.80231 5027 ft 176 kts 221°
2026-04-29 09:49 -9.39957 159.79353 5029 ft 177 kts 221°
2026-04-29 09:49 -9.40938 159.78636 5034 ft 170 kts 188°
2026-04-29 09:49 -9.42078 159.78716 5039 ft 156 kts 161°
2026-04-29 09:49 -9.43072 159.79019 5030 ft 143 kts 154°
2026-04-29 09:50 -9.44015 159.79385 5038 ft 146 kts 152°
2026-04-29 09:50 -9.44974 159.79770 5039 ft 147 kts 152°
2026-04-29 09:50 -9.45920 159.80153 5042 ft 147 kts 152°
2026-04-29 09:50 -9.46875 159.80541 5047 ft 146 kts 152°
2026-04-29 09:51 -9.47830 159.80930 5052 ft 146 kts 152°
2026-04-29 09:51 -9.48787 159.81319 5053 ft 146 kts 152°
2026-04-29 09:51 -9.49724 159.81700 5052 ft 146 kts 153°
2026-04-29 09:51 -9.50680 159.82094 5057 ft 145 kts 149°
2026-04-29 09:52 -9.51315 159.82842 5015 ft 138 kts 100°
2026-04-29 09:52 -9.51286 159.83798 4875 ft 133 kts 79°
2026-04-29 09:52 -9.51041 159.84732 4699 ft 133 kts 73°
2026-04-29 09:52 -9.50720 159.85663 4501 ft 134 kts 71°
2026-04-29 09:53 -9.50386 159.86548 4256 ft 134 kts 70°
2026-04-29 09:53 -9.50036 159.87447 4007 ft 131 kts 69°
2026-04-29 09:53 -9.49686 159.88332 3829 ft 126 kts 69°
2026-04-29 09:53 -9.49363 159.89142 3703 ft 119 kts 69°
2026-04-29 09:54 -9.49029 159.89981 3535 ft 125 kts 69°
2026-04-29 09:54 -9.48675 159.90861 3384 ft 125 kts 69°
2026-04-29 09:54 -9.48353 159.91664 3296 ft 119 kts 69°
2026-04-29 09:54 -9.48014 159.92506 3211 ft 115 kts 69°
2026-04-29 09:55 -9.47707 159.93275 3059 ft 117 kts 69°
2026-04-29 09:55 -9.47391 159.94058 2757 ft 114 kts 70°
2026-04-29 09:55 -9.47082 159.94829 2414 ft 107 kts 70°
2026-04-29 09:55 -9.46808 159.95512 2089 ft 98 kts 70°
2026-04-29 09:56 -9.46546 159.96170 1742 ft 93 kts 69°
2026-04-29 09:56 -9.46293 159.96762 1527 ft 88 kts 69°
2026-04-29 09:56 -9.46050 159.97351 1586 ft 93 kts 69°
2026-04-29 09:56 -9.45801 159.97942 1728 ft 87 kts 69°
2026-04-29 09:57 -9.45561 159.98532 1797 ft 91 kts 69°
2026-04-29 09:57 -9.45307 159.99124 1712 ft 87 kts 69°
2026-04-29 09:57 -9.45038 159.99757 1421 ft 93 kts 69°
2026-04-29 09:57 -9.44802 160.00432 1009 ft 103 kts 76°
2026-04-29 09:58 -9.44616 160.01067 747 ft 85 kts 71°
2026-04-29 09:58 -9.44359 160.01674 647 ft 94 kts 69°
2026-04-29 09:58 -9.44093 160.02275 530 ft 90 kts 69°
2026-04-29 09:58 -9.43863 160.02859 434 ft 88 kts 71°
2026-04-29 09:59 -9.43610 160.03496 342 ft 95 kts 66°
2026-04-29 09:59 -9.43372 160.04097 162 ft 82 kts 71°
2026-04-29 09:59 -9.43137 160.04671 70 ft 85 kts 71°
2026-04-29 09:59 -9.42956 160.05136 35 ft 52 kts 68°
2026-04-29 10:00 -9.42848 160.05392 35 ft 24 kts 73°
2026-04-29 10:00 -9.42816 160.05512 35 ft 2 kts 47°
2026-04-29 10:00 -9.42809 160.05513 35 ft 1 kts 341°
2026-04-29 10:00 -9.42818 160.05470 35 ft 12 kts 243°
2026-04-29 10:01 -9.42860 160.05376 35 ft 15 kts 250°
2026-04-29 10:01 -9.42900 160.05267 35 ft 16 kts 248°
2026-04-29 10:01 -9.42946 160.05150 35 ft 18 kts 249°
2026-04-29 10:01 -9.42994 160.05025 36 ft 18 kts 249°
2026-04-29 10:02 -9.43040 160.04918 37 ft 14 kts 246°
2026-04-29 10:02 -9.43079 160.04819 38 ft 13 kts 249°
2026-04-29 10:02 -9.43094 160.04746 38 ft 11 kts 296°
2026-04-29 10:02 -9.43024 160.04706 38 ft 9 kts 333°
2026-04-29 10:03 -9.42956 160.04677 39 ft 10 kts 342°
2026-04-29 10:03 -9.42893 160.04651 40 ft 6 kts 319°
2026-04-29 10:03 -9.42886 160.04599 41 ft 6 kts 291°
2026-04-29 10:03 -9.42844 160.04576 39 ft 3 kts 342°
2026-04-29 10:04 -9.42839 160.04572 39 ft 0 kts 297°
2026-04-29 10:04 -9.42838 160.04562 38 ft 0 kts 286°
2026-04-29 10:04 -9.42836 160.04558 38 ft 0 kts 288°